CZ-6A DEB, 61288

Orbit data source: Space-Track

CZ-6A DEB, 61288 is space debris in LEO originally from a launch on Tue, 06 Aug 2024 UTC launched from the Taiyaun Space Center, China (TSC). Debris objects in space refer to the collection of defunct objects orbiting the Earth. Examples of debris include non-operational satellites, rocket bodies, and fragments generated from explosions, collisions, or faulty payload assembly.

Loading next visibility...
Identifier
61288, 2024-140SZ
Orbit
LEO
Country
Flag of CNCN / PRC
Related business
Manufacturer
SAST
Mission
Spacecraft
Bus & Motor
Unknown
Mass
Unknown
Launch date (UTC)
2024-08-06 (2 years ago)
Launch vehicle
Unknown
Launch site
Taiyaun Space Center, China (TSC)
Object type
Payload
Rocket body
Debris
Shape & HBR
Unknown shape, 0.1 m
Radar Cross Section
Medium (>0.1 m² and <1 m²)

Expand to show TLE details & history
Last TLE update: 13 hours ago

TLE from 13 hours ago
0 CZ-6A DEB
1 61288U 24140SZ  26171.29191708  .00002792  00000-0  92638-3 0  9991
2 61288  89.0203 274.3052 0008789  43.2449 316.9439 14.37571971 94081
Epoch: 2026-06-20T07:00Z
TLE epoch observation values (Epoch: 2026-06-20T07:00:21.635Z)
Latitude
-0.00008°
Longitude
-99.29359°
Altitude
765.024 km
Speed
7.474 km/s
True Right ascension
18h 17m 13s
True Declination
0° 00' 00"
Sunlit
Object was in full shadow at epoch
Visualization orbit readout
Latitude
Unknown
Longitude
Unknown
Altitude
Unknown
Speed
Unknown
Apparent Right ascension
Unknown
Apparent Declination
Unknown
Sunlit
N/A
Visualization observer readout
Local Sidereal Time
07:24:30
Azimuth
Unknown
Elevation
Unknown
Doppler factor
Unknown
Orbital elements
Apogee altitude
769.735 km
Perigee altitude
757.181 km
Semi-major axis
7,141.595 km
Eccentricity
0.00088
Inclination
89.0203°
RAAN
274.3052°
Arg. of periapsis
43.2449°
True anomaly
316.87509°
Mean anomaly
316.9439°
Eccentric anomaly
316.9095°
Mean motion
3.59625 °/min
Orbital period
100.1 mins
BSTAR
0.00092638
Loading maneuver chart data...
Computing Atmospheric mass density...
Loading historical data...
Loading historical data...
Loading historical data...
Loading historical data...
Loading historical data...
Loading historical data...
Loading historical data...

Documentation

Showing up to 5 results
|